Погода в Борнмуте

Великобритания     50°43′30″N   1°52′02″W
темп.,
°C
ветер,
м/с
пор.,
м/с
влажн.,
%
обл.,
%
осадки,
мм/ч
давл.,
гПа
погр.,
м
15 апреля, чт
чт1501:00+3всв46872 0.0 1033196
04:00+2св45858 0.0 1033182
07:00+1св478911 0.0 1034213
10:00+6всв56705 0.0 1034790
13:00+9в455260 0.0 10331440
16:00+9юв135696 0.1 10321059
19:00+7в577098 0.3 1032652
22:00+5св478670 0.2 1032341
16 апреля, пт
пт1601:00+3св45855 0.3 1032190
04:00+1св46882 0.0 1032177
07:00+1ссв469212 0.0 1032169
10:00+6св45673 0.0 1032638
13:00+9в234928 0.0 10311179
16:00+9ю335582 0.0 10301030
19:00+8зюз3369100 0.1 1030142
22:00+6ссв47767 0.0 1031213
17 апреля, сб
сб1701:00+5в34815 0.0 1030225
04:00+3св33835 0.0 1030104
07:00+2ссв45755 0.0 1030124
10:00+7св44595 0.0 1030639
13:00+10юв23495 0.0 1029984
16:00+9ююз425710 0.0 1027543
19:00+8юз56725 0.0 1027274
22:00+5зсз3478100 0.0 102782
18 апреля, вс
вс1801:00+4зсз22826 0.0 102760
04:00+4зсз2282100 0.0 102658
07:00+5сз2278100 0.0 102564
10:00+8зюз2268100 0.0 1026330
13:00+10ююз436286 0.0 1025810
16:00+10юз556482 0.0 1024629
19:00+9зюз457343 0.0 1024187
22:00+6зсз2273100 0.0 102450
19 апреля, пн
пн1901:00+6зсз1167100 0.0 102339
04:00+6в1167100 0.0 102258
07:00+7вюв1274100 0.0 1022171
10:00+9юв446999 0.0 1021548
13:00+9ююв5562100 0.0 1020660
16:00+9ююв4464100 0.0 1019434
19:00+8юв347693 0.0 1018213
22:00+7вюв338596 0.0 101868